Flag for Congo Weather past 2 weeks in Pointe-Noire, Congo

Now
75 °F

Broken clouds.


Feels Like: 77 °F
Forecast: 68 / 75 °F
Wind: 14 mph from Southwest

Location: Pointe Airport-Noire

Current Time: Jul 24, 2014 at 11:54:42 AM

Latest Report: Jul 24, 2014 at 11:00 AM


Visibility: 4 mi

Pressure: 30.09 "Hg

Humidity: 74%

Dew point: 66 °F

Location of Pointe-NoireLocation

Historic Weather in Pointe-Noire — Graph

°F

Pointe-Noire temperature yesterday

Maximum temperature yesterday: 75 °F (at 11:00 AM)
Minimum temperature yesterday: 64 °F (at 6:00 AM)
Average temperature yesterday: 71 °F

Past Weeks' High & Low Weather Summary

 TemperatureHumidityPressure
High77 °F (Jul 11, 1:00 PM)100% (Jul 10, 3:00 AM)30.09 "Hg (Jul 10, 3:00 AM)
Low64 °F (Jul 10, 1:00 AM)57% (Jul 17, 3:00 PM)29.89 "Hg (Jul 14, 4:00 PM)
Average71 °F84%30.01 "Hg
* Reported Jul 9 2:00 PM — Jul 24 10:00 AM, Pointe-Noire, Weather by CustomWeather, © 2014

Note: Actual official high and low records may vary slightly from our data, if they occured in-between our weather recording intervals... More about our weather records

Advertising

Pointe-Noire weather history for previous 24 hours

 ConditionsComfort  
Time TempWeatherWind HumidityBarometerVisibility
10:00 AM
Jul 24
73 °FFog.5 mph83%30.09 "Hg2 mi
9:00 AM73 °FFog.5 mph83%30.09 "Hg2 mi
8:00 AM68 °FFog.No wind94%30.07 "Hg2 mi
7:00 AM68 °FFog.No wind94%30.07 "Hg2 mi
6:00 AM68 °FPartly cloudy.No wind94%30.04 "Hg4 mi
5:00 AM70 °FMostly cloudy.No wind88%30.04 "Hg4 mi
4:00 AM70 °FMostly cloudy.No wind94%30.04 "Hg4 mi
3:00 AM70 °FPassing clouds.2 mph88%30.04 "Hg4 mi
2:00 AM70 °FPassing clouds.2 mph88%30.01 "Hg4 mi
1:00 AM70 °FPassing clouds.2 mph88%30.04 "Hg4 mi
12:00 AM72 °FOvercast.5 mph83%30.07 "Hg4 mi
11:00 PM
Jul 23
72 °FOvercast.No wind88%30.07 "Hg4 mi
10:00 PM72 °FOvercast.No wind83%30.07 "Hg4 mi
9:00 PM72 °FOvercast.2 mph83%30.07 "Hg4 mi
8:00 PM72 °FMostly cloudy.No wind83%30.04 "Hg4 mi
7:00 PM72 °FMostly cloudy.2 mph83%30.04 "Hg4 mi
6:00 PM72 °FScattered clouds.5 mph83%30.01 "Hg4 mi
5:00 PM73 °FScattered clouds.6 mph83%29.98 "Hg4 mi
4:00 PM73 °FScattered clouds.12 mph83%29.98 "Hg4 mi
3:00 PM75 °FScattered clouds.14 mph83%29.98 "Hg4 mi
2:00 PM75 °FPartly sunny.12 mph74%30.01 "Hg5 mi
12:00 PM75 °FBroken clouds.5 mph74%30.04 "Hg5 mi
11:00 AM75 °FBroken clouds.7 mph69%30.04 "Hg5 mi
Weather by CustomWeather, © 2014

See weather overviewHow to use our weather pages